Tracking 19212 objects as of 17-Jul-2018
HD Live streaming from Space Station
objects crossing your sky now

FENGYUN 1C DEB

Track FENGYUN 1C DEB now!
10-day predictions


NORAD ID: 32418
Int'l Code: 1999-025DAE
Perigee: 770.0 km
Apogee: 1,184.6 km
Inclination: 98.2 °
Period: 104.5 minutes
Semi major axis: 7348 km
RCS: 0.0154 m2 (small)
Launch date: May 10, 1999
Source: People's Republic of China (PRC)
Launch site: Taiyaun Space Center, China (TSC)

Note: This is SATELLITE DEBRIS
aabbcc
Your satellite tracking list
Your tracking list is empty




NASA's NSSDC Master Catalog

Two Line Element Set (TLE):
1 32418U 99025DAE 18189.28671533 +.00000732 +00000-0 +56777-3 0  9992
2 32418 098.2077 356.1779 0282058 327.2154 031.1769 13.78232734536809
Source of the keplerian elements: AFSPC